TimePDT,TemperatureF,Dew PointF,Humidity,Sea Level PressureIn,VisibilityMPH,Wind Direction,Wind SpeedMPH,Gust SpeedMPH,PrecipitationIn,Events,Conditions,WindDirDegrees,DateUTC
12:53 AM,43.0,39.0,86,29.80,10.0,WSW,4.6,-,0.00,Rain,Light Rain,250,2012-10-23 07:53:00
1:53 AM,41.0,37.9,89,29.82,10.0,North,5.8,-,0.00,,Mostly Cloudy,350,2012-10-23 08:53:00
2:53 AM,41.0,37.9,89,29.83,10.0,ENE,3.5,-,0.00,Rain,Light Rain,60,2012-10-23 09:53:00
3:20 AM,41.0,37.4,87,29.84,4.0,NW,3.5,-,0.03,Rain,Rain,310,2012-10-23 10:20:00
3:31 AM,41.0,37.4,87,29.83,5.0,Calm,Calm,-,0.05,Rain,Rain,0,2012-10-23 10:31:00
3:49 AM,42.8,37.4,81,29.84,10.0,Calm,Calm,-,0.06,Rain,Light Rain,0,2012-10-23 10:49:00
3:53 AM,42.1,37.9,85,29.85,10.0,Calm,Calm,-,0.06,Rain,Light Rain,0,2012-10-23 10:53:00
4:44 AM,41.0,37.4,87,29.85,8.0,NNE,4.6,-,0.02,Rain,Light Rain,30,2012-10-23 11:44:00
4:53 AM,41.0,37.9,89,29.86,10.0,NNE,4.6,-,0.02,Rain,Light Rain,20,2012-10-23 11:53:00
5:53 AM,41.0,37.9,89,29.88,9.0,NNE,3.5,-,0.01,Rain,Light Rain,30,2012-10-23 12:53:00
6:53 AM,41.0,37.9,89,29.91,10.0,Calm,Calm,-,0.00,,Mostly Cloudy,0,2012-10-23 13:53:00
7:53 AM,41.0,37.9,89,29.92,10.0,Calm,Calm,-,N/A,,Overcast,0,2012-10-23 14:53:00
8:00 AM,41.0,37.4,87,29.91,10.0,North,3.5,-,N/A,,Overcast,350,2012-10-23 15:00:00
8:21 AM,41.0,37.4,87,29.92,10.0,NW,4.6,-,N/A,,Overcast,310,2012-10-23 15:21:00
8:44 AM,41.0,37.4,87,29.93,10.0,NW,3.5,-,0.00,Rain,Light Rain,320,2012-10-23 15:44:00
8:53 AM,41.0,37.9,89,29.95,10.0,Calm,Calm,-,0.00,Rain,Light Rain,0,2012-10-23 15:53:00
9:16 AM,42.8,39.2,87,29.94,10.0,Calm,Calm,-,0.00,,Overcast,0,2012-10-23 16:16:00
9:23 AM,42.8,37.4,81,29.94,10.0,Calm,Calm,-,0.00,,Overcast,0,2012-10-23 16:23:00
9:53 AM,42.8,37.4,81,29.95,8.0,Calm,Calm,-,N/A,Rain,Light Rain,0,2012-10-23 16:53:00
10:53 AM,45.0,37.9,76,29.97,9.0,Calm,Calm,-,0.00,,Mostly Cloudy,0,2012-10-23 17:53:00
11:53 AM,48.0,39.9,74,29.96,10.0,NNE,4.6,-,N/A,,Mostly Cloudy,30,2012-10-23 18:53:00
12:53 PM,50.0,39.9,68,29.94,10.0,NNE,8.1,-,0.01,,Scattered Clouds,20,2012-10-23 19:53:00
1:53 PM,52.0,37.0,57,29.92,10.0,NNE,3.5,-,N/A,,Scattered Clouds,20,2012-10-23 20:53:00
2:53 PM,53.1,34.0,48,29.91,10.0,Calm,Calm,-,N/A,,Scattered Clouds,0,2012-10-23 21:53:00
3:53 PM,52.0,33.1,49,29.90,10.0,Calm,Calm,-,N/A,,Mostly Cloudy,0,2012-10-23 22:53:00
4:53 PM,53.1,32.0,45,29.88,10.0,Calm,Calm,-,N/A,,Mostly Cloudy,0,2012-10-23 23:53:00
5:53 PM,51.1,36.0,56,29.88,10.0,NE,8.1,-,N/A,,Overcast,50,2012-10-24 00:53:00
6:53 PM,51.1,32.0,48,29.88,10.0,Calm,Calm,-,N/A,,Overcast,0,2012-10-24 01:53:00
7:53 PM,50.0,33.1,52,29.88,10.0,Calm,Calm,-,N/A,,Overcast,0,2012-10-24 02:53:00
8:53 PM,48.9,34.0,56,29.87,10.0,WSW,6.9,-,N/A,,Overcast,240,2012-10-24 03:53:00
9:53 PM,46.9,37.0,68,29.88,10.0,WSW,3.5,-,N/A,,Overcast,250,2012-10-24 04:53:00
10:53 PM,46.9,36.0,66,29.91,10.0,Variable,4.6,-,N/A,,Overcast,0,2012-10-24 05:53:00
11:53 PM,44.1,37.9,79,29.91,10.0,North,4.6,-,N/A,,Overcast,10,2012-10-24 06:53:00